• In Portugal
  • List of Countries
  • For 7 days
  • Water Temperature
  • Satellite Maps
  • Weather Map
  • Weather Widgets
  • user-avatar
    Login

    Hourly Weather San Luis

    Today, 16 December, Saturday

    Time Temperature Precipitation Wind Pressure Humidity
    00:00 +29°C° 0 mm 7 mps 692 mmHg 50%
    01:00 +29°C° 0 mm 7 mps 692 mmHg 52%
    02:00 +29°C° 0 mm 7 mps 691 mmHg 51%
    03:00 +28°C° 0 mm 7 mps 691 mmHg 51%
    04:00 +28°C° 0 mm 7 mps 691 mmHg 52%
    05:00 +28°C° 0 mm 7 mps 691 mmHg 52%
    06:00 +31°C° 0 mm 8 mps 691 mmHg 48%
    07:00 +32°C° 0 mm 8 mps 691 mmHg 44%
    08:00 +34°C° 0 mm 9 mps 691 mmHg 40%
    09:00 +35°C° 0 mm 8 mps 691 mmHg 36%
    10:00 +38°C° 0 mm 8 mps 691 mmHg 32%
    11:00 +40°C° 0 mm 7 mps 691 mmHg 27%
    12:00 +41°C° 0 mm 7 mps 690 mmHg 25%
    13:00 +42°C° 0 mm 6 mps 690 mmHg 22%
    14:00 +44°C° 0 mm 6 mps 689 mmHg 19%
    15:00 +43°C° 0 mm 5 mps 689 mmHg 18%
    16:00 +43°C° 0 mm 4 mps 688 mmHg 18%
    17:00 +43°C° 0 mm 3 mps 688 mmHg 17%
    18:00 +39°C° 0.1 mm 3 mps 688 mmHg 21%
    19:00 +37°C° 0.1 mm 4 mps 688 mmHg 25%
    20:00 +35°C° 0.1 mm 4 mps 688 mmHg 29%
    21:00 +33°C° 1.1 mm 6 mps 690 mmHg 36%
    22:00 +31°C° 1.1 mm 8 mps 691 mmHg 43%
    23:00 +29°C° 1.1 mm 10 mps 692 mmHg 50%

    Tomorrow, 17 December, Sunday

    Time Temperature Precipitation Wind Pressure Humidity
    00:00 +26°C° 0.5 mm 11 mps 693 mmHg 48%
    01:00 +22°C° 0.5 mm 11 mps 694 mmHg 46%
    02:00 +19°C° 0.5 mm 12 mps 696 mmHg 44%
    03:00 +17°C° 0 mm 12 mps 697 mmHg 40%
    04:00 +15°C° 0 mm 12 mps 698 mmHg 36%
    05:00 +14°C° 0 mm 12 mps 700 mmHg 32%
    06:00 +14°C° 0 mm 11 mps 701 mmHg 29%
    07:00 +14°C° 0 mm 11 mps 702 mmHg 26%
    08:00 +16°C° 0 mm 10 mps 703 mmHg 23%
    09:00 +17°C° 0 mm 9 mps 703 mmHg 22%
    10:00 +20°C° 0 mm 8 mps 704 mmHg 21%
    11:00 +21°C° 0 mm 7 mps 704 mmHg 21%
    12:00 +23°C° 0 mm 6 mps 704 mmHg 21%
    13:00 +24°C° 0 mm 6 mps 703 mmHg 20%
    14:00 +26°C° 0 mm 5 mps 703 mmHg 20%
    15:00 +26°C° 0 mm 5 mps 702 mmHg 21%
    16:00 +26°C° 0 mm 6 mps 702 mmHg 22%
    17:00 +27°C° 0 mm 6 mps 701 mmHg 22%
    18:00 +24°C° 0 mm 6 mps 701 mmHg 26%
    19:00 +23°C° 0 mm 6 mps 701 mmHg 29%
    20:00 +21°C° 0 mm 6 mps 701 mmHg 33%
    21:00 +21°C° 0 mm 6 mps 701 mmHg 34%
    22:00 +20°C° 0 mm 6 mps 701 mmHg 36%
    23:00 +19°C° 0 mm 6 mps 701 mmHg 37%

    Day after tomorrow, 18 December, Monday

    Time Temperature Precipitation Wind Pressure Humidity
    00:00 +19°C° 0 mm 5 mps 701 mmHg 38%
    01:00 +19°C° 0 mm 5 mps 700 mmHg 38%
    02:00 +19°C° 0 mm 5 mps 700 mmHg 39%
    03:00 +19°C° 0 mm 5 mps 699 mmHg 39%
    04:00 +19°C° 0 mm 6 mps 699 mmHg 40%
    05:00 +19°C° 0 mm 6 mps 699 mmHg 40%
    06:00 +21°C° 0 mm 7 mps 699 mmHg 36%
    07:00 +23°C° 0 mm 8 mps 699 mmHg 32%
    08:00 +26°C° 0 mm 9 mps 700 mmHg 27%
    09:00 +27°C° 0 mm 9 mps 700 mmHg 26%
    10:00 +29°C° 0 mm 9 mps 699 mmHg 24%
    11:00 +32°C° 0 mm 9 mps 699 mmHg 22%
    12:00 +33°C° 0 mm 9 mps 698 mmHg 22%
    13:00 +34°C° 0 mm 9 mps 698 mmHg 21%
    14:00 +35°C° 0 mm 9 mps 697 mmHg 21%
    15:00 +35°C° 0 mm 8 mps 697 mmHg 22%
    16:00 +34°C° 0 mm 8 mps 696 mmHg 23%
    17:00 +34°C° 0 mm 7 mps 696 mmHg 24%
    18:00 +33°C° 0 mm 6 mps 696 mmHg 27%
    19:00 +30°C° 0 mm 5 mps 696 mmHg 30%
    20:00 +28°C° 0 mm 4 mps 697 mmHg 34%
    21:00 +28°C° 0 mm 5 mps 697 mmHg 35%
    22:00 +27°C° 0 mm 6 mps 697 mmHg 36%
    23:00 +26°C° 0 mm 6 mps 697 mmHg 37%

    19 December, Tuesday

    Time Temperature Precipitation Wind Pressure Humidity
    00:00 +26°C° 0 mm 6 mps 697 mmHg 38%
    01:00 +26°C° 0 mm 6 mps 696 mmHg 39%
    02:00 +26°C° 0 mm 7 mps 696 mmHg 39%
    03:00 +24°C° 0 mm 6 mps 696 mmHg 42%
    04:00 +24°C° 0 mm 6 mps 696 mmHg 44%
    05:00 +24°C° 0 mm 6 mps 696 mmHg 46%
    06:00 +26°C° 0 mm 6 mps 697 mmHg 46%
    07:00 +28°C° 0 mm 7 mps 697 mmHg 45%
    08:00 +29°C° 0 mm 7 mps 698 mmHg 45%
    09:00 +30°C° 0.4 mm 6 mps 698 mmHg 43%
    10:00 +32°C° 0.4 mm 5 mps 698 mmHg 40%
    11:00 +34°C° 0.4 mm 4 mps 698 mmHg 38%
    12:00 +34°C° 0.9 mm 4 mps 698 mmHg 38%
    13:00 +34°C° 0.9 mm 3 mps 697 mmHg 38%
    14:00 +34°C° 0.9 mm 2 mps 696 mmHg 38%
    15:00 +34°C° 0.3 mm 3 mps 696 mmHg 37%
    16:00 +35°C° 0.3 mm 3 mps 696 mmHg 36%
    17:00 +35°C° 0.3 mm 4 mps 696 mmHg 35%
    18:00 +33°C° 0.1 mm 4 mps 696 mmHg 40%
    19:00 +32°C° 0.1 mm 5 mps 696 mmHg 45%
    20:00 +29°C° 0.1 mm 5 mps 696 mmHg 50%
    21:00 +28°C° 0.4 mm 5 mps 696 mmHg 54%
    22:00 +27°C° 0.4 mm 5 mps 696 mmHg 58%
    23:00 +26°C° 0.4 mm 5 mps 696 mmHg 62%

    20 December, Wednesday

    Time Temperature Precipitation Wind Pressure Humidity
    00:00 +26°C° 0 mm 5 mps 696 mmHg 63%
    01:00 +26°C° 0 mm 5 mps 696 mmHg 64%
    02:00 +26°C° 0 mm 5 mps 695 mmHg 65%
    03:00 +25°C° 0 mm 5 mps 695 mmHg 66%
    04:00 +25°C° 0 mm 4 mps 695 mmHg 66%
    05:00 +25°C° 0 mm 4 mps 695 mmHg 67%
    06:00 +26°C° 0 mm 5 mps 695 mmHg 62%
    07:00 +28°C° 0 mm 5 mps 696 mmHg 58%
    08:00 +29°C° 0 mm 6 mps 696 mmHg 53%
    09:00 +32°C° 0 mm 5 mps 696 mmHg 47%
    10:00 +34°C° 0 mm 5 mps 695 mmHg 41%
    11:00 +35°C° 0 mm 4 mps 695 mmHg 35%
    12:00 +36°C° 0 mm 4 mps 694 mmHg 31%
    13:00 +37°C° 0 mm 4 mps 694 mmHg 28%
    14:00 +40°C° 0 mm 4 mps 693 mmHg 24%
    15:00 +40°C° 0 mm 4 mps 692 mmHg 24%
    16:00 +40°C° 0 mm 4 mps 692 mmHg 23%
    17:00 +40°C° 0 mm 4 mps 691 mmHg 22%
    18:00 +37°C° 0 mm 5 mps 691 mmHg 26%
    19:00 +35°C° 0 mm 5 mps 691 mmHg 31%
    20:00 +33°C° 0 mm 5 mps 691 mmHg 35%
    21:00 +32°C° 0.1 mm 6 mps 691 mmHg 39%
    22:00 +32°C° 0.1 mm 7 mps 691 mmHg 43%
    23:00 +31°C° 0.1 mm 8 mps 691 mmHg 47%

    21 December, Thursday

    Time Temperature Precipitation Wind Pressure Humidity
    00:00 +29°C° 0 mm 8 mps 691 mmHg 52%
    01:00 +28°C° 0 mm 9 mps 691 mmHg 56%
    02:00 +28°C° 0 mm 10 mps 691 mmHg 60%
    03:00 +27°C° 0.1 mm 9 mps 691 mmHg 63%
    04:00 +26°C° 0.1 mm 7 mps 691 mmHg 66%
    05:00 +26°C° 0.1 mm 6 mps 692 mmHg 69%
    06:00 +26°C° 0.8 mm 5 mps 692 mmHg 69%
    07:00 +26°C° 0.8 mm 5 mps 693 mmHg 69%
    08:00 +27°C° 0.8 mm 4 mps 694 mmHg 69%
    09:00 +29°C° 0.4 mm 3 mps 694 mmHg 60%
    10:00 +30°C° 0.4 mm 3 mps 694 mmHg 52%
    11:00 +32°C° 0.4 mm 2 mps 695 mmHg 44%
    12:00 +33°C° 1.2 mm 3 mps 694 mmHg 43%
    13:00 +34°C° 1.2 mm 4 mps 694 mmHg 43%
    14:00 +34°C° 1.2 mm 5 mps 694 mmHg 42%
    15:00 +34°C° 1.7 mm 6 mps 693 mmHg 44%
    16:00 +33°C° 1.7 mm 6 mps 693 mmHg 46%
    17:00 +33°C° 1.7 mm 7 mps 693 mmHg 48%
    18:00 +32°C° 1 mm 7 mps 693 mmHg 54%
    19:00 +29°C° 1 mm 7 mps 693 mmHg 59%
    20:00 +28°C° 1 mm 7 mps 693 mmHg 65%
    21:00 +27°C° 0.6 mm 6 mps 693 mmHg 68%
    22:00 +26°C° 0.6 mm 5 mps 694 mmHg 70%
    23:00 +26°C° 0.6 mm 5 mps 694 mmHg 73%
    Show more